Location: B?dimalle
(17.1788°N, 80.5377°E)
Time: 21:51:10
(UTC+00:00)

Tiros 1 despin weight - Pass Details

Date: 09 November 2024
Orbit: 570 x 609 km, 48.2° (Epoch: 12 December)

Event Time Altitude Azimuth Distance (km) Brightness Sun altitude
Exits shadow 23:05:41 11° 4° (N) 1,839 ? -22.6°
Drops below altitude 10° 23:05:59 10° 7° (N) 1,922 ? -22.6°
Sets 23:08:43 0° 24° (NNE) 2,816 ? -21.9°
